Flag for U.S.A. Weather past 2 weeks in Virginia Beach, Virginia, U.S.A.

Now
57 °F

Light rain. Fog.


Feels Like: 54 °F
Forecast: 56 / 60 °F
Wind: 15 mph from Northwest

Location: Virginia Beach - Oceana

Current Time: Oct 22, 2014 at 12:09:11 PM

Latest Report: Oct 22, 2014 at 10:56 AM


Visibility: 4 mi

Pressure: 29.83 "Hg

Humidity: 87%

Dew point: 53 °F

Location of Virginia BeachLocation

Historic Weather in Virginia Beach — Graph

°F

Virginia Beach temperature yesterday

Maximum temperature yesterday: 76 °F (at 2:56 PM)
Minimum temperature yesterday: 57 °F (at 1:56 AM)
Average temperature yesterday: 66 °F

Past Weeks' High & Low Weather Summary

 TemperatureHumidityPressure
High83 °F (Oct 8, 12:56 PM)90% (Oct 15, 10:56 PM)30.27 "Hg (Oct 15, 10:56 PM)
Low42 °F (Oct 20, 5:56 AM)32% (Oct 20, 3:56 PM)29.68 "Hg (Oct 18, 1:56 PM)
Average68 °F67%29.98 "Hg
* Reported Oct 7 10:56 AM — Oct 22 10:56 AM, Virginia Beach, Weather by CustomWeather, © 2014

Note: Actual official high and low records may vary slightly from our data, if they occured in-between our weather recording intervals... More about our weather records

Advertising

Virginia Beach weather history for previous 24 hours

 ConditionsComfort  
Time TempWeatherWind HumidityBarometerVisibility
10:56 AM
Oct 22
57 °FLight rain. Fog.15 mph87%29.83 "Hg4 mi
9:56 AM56 °FFog.17 mph87%29.83 "Hg3 mi
8:56 AM56 °FLight rain. Fog.14 mph87%29.83 "Hg3 mi
7:56 AM56 °FLight rain. Mostly cloudy.13 mph84%29.82 "Hg3 mi
6:56 AM57 °FLight rain. Mostly cloudy.12 mph87%29.80 "Hg10 mi
5:56 AM57 °FOvercast.14 mph87%29.80 "Hg10 mi
4:56 AM57 °FLight rain. Mostly cloudy.8 mph87%29.79 "Hg7 mi
3:56 AM57 °FThunderstorms. Overcast.10 mph83%29.78 "Hg6 mi
2:56 AM60 °FMostly cloudy.7 mph80%29.82 "Hg10 mi
1:56 AM60 °FPassing clouds.9 mph78%29.82 "Hg10 mi
12:56 AM61 °FPartly cloudy.9 mph78%29.83 "Hg10 mi
11:56 PM
Oct 21
62 °FPartly cloudy.13 mph73%29.84 "Hg10 mi
10:56 PM65 °FOvercast.12 mph68%29.84 "Hg10 mi
9:56 PM64 °FMostly cloudy.5 mph73%29.84 "Hg10 mi
8:56 PM63 °FPartly cloudy.No wind73%29.84 "Hg10 mi
7:56 PM64 °FPartly cloudy.No wind68%29.84 "Hg10 mi
6:56 PM66 °FBroken clouds.6 mph63%29.83 "Hg10 mi
5:56 PM69 °FScattered clouds.6 mph57%29.82 "Hg10 mi
4:56 PM74 °FPartly sunny.8 mph40%29.81 "Hg10 mi
3:56 PM76 °FScattered clouds.12 mph37%29.80 "Hg10 mi
2:56 PM76 °FScattered clouds.10 mph40%29.80 "Hg10 mi
1:56 PM75 °FScattered clouds.13 mph48%29.82 "Hg10 mi
12:56 PM74 °FScattered clouds.12 mph50%29.85 "Hg10 mi
Weather by CustomWeather, © 2014

See weather overviewHow to use our weather pages